Mountain Home, Arkansas, United States (72653)
Lat: 36.34N, Lon: 92.39W
Wx Zone: ARZ005
Local Info
Past Weather Observations for Thursday, September 18, 2014

NOTE: This archive is for the closest National Weather Service station to Mountain Home. Information may differ from the station used for current weather conditions.

Click here for Long-term Archive

Time Weather Temperature Dewpoint Humidity Pressure Winds Precip Visibility
23:53
Partly Cloudy
Fog And Mist
61°F / 16°C 61°F / 16°C 100% 30.04 in
(1017 mb)
Calm - 2 1/2SM
23:48
Partly Cloudy
Fog And Mist
61°F / 16°C 61°F / 16°C 100% 30.04 in
(1017 mb)
Calm - 2 1/2SM
23:40
Partly Cloudy
Fog And Mist
61°F / 16°C 61°F / 16°C 100% 30.04 in
(1017 mb)
ENE 3.5 mph
(ENE 6 kph)
- 1 1/2SM
23:37
Obscured
Fog And Mist
61°F / 16°C 61°F / 16°C 100% 30.04 in
(1017 mb)
ENE 3.5 mph
(ENE 6 kph)
- 3/4SM
23:32
Obscured
Fog
61°F / 16°C 61°F / 16°C 100% 30.04 in
(1017 mb)
ENE 3.5 mph
(ENE 6 kph)
- 1/2SM
23:21
Partly Cloudy
Fog And Mist
61°F / 16°C 59°F / 15°C 94% 30.04 in
(1017 mb)
Calm - 3/4SM
23:03
Mostly Cloudy
Fog
61°F / 16°C 61°F / 16°C 100% 30.04 in
(1017 mb)
Calm - 1/2SM
23:00
Mostly Cloudy
Fog And Mist
61°F / 16°C 61°F / 16°C 100% 30.04 in
(1017 mb)
Calm - 3/4SM
22:53
Mostly Cloudy
Fog And Mist
61°F / 16°C 61°F / 16°C 100% 30.04 in
(1017 mb)
Calm - 2SM
22:33
Clear
Fog And Mist
61°F / 16°C 61°F / 16°C 100% 30.04 in
(1017 mb)
Calm - 1 1/2SM
22:24
Clear
Fog And Mist
63°F / 17°C 61°F / 16°C 94% 30.04 in
(1017 mb)
Calm - 2SM
22:00
Partly Cloudy
Fog And Mist
64°F / 18°C 63°F / 17°C 94% 30.04 in
(1017 mb)
Calm - 4SM
21:53
Mostly Cloudy
Fog And Mist
64°F / 18°C 63°F / 17°C 94% 30.04 in
(1017 mb)
ENE 3.5 mph
(ENE 6 kph)
- 4SM
20:53
Overcast
Fog And Mist
64°F / 18°C 64°F / 18°C 100% 30.04 in
(1017 mb)
Calm - 5SM
19:53
Overcast
Fog And Mist
64°F / 18°C 64°F / 18°C 100% 30.04 in
(1017 mb)
Calm - 5SM
19:15
Overcast
Fog And Mist
64°F / 18°C 64°F / 18°C 100% 30.01 in
(1016 mb)
Calm - 5SM
18:53
Overcast
Fog And Mist
64°F / 18°C 64°F / 18°C 100% 30.01 in
(1016 mb)
Calm - 5SM
17:53
Overcast
Fog And Mist
66°F / 19°C 64°F / 18°C 94% 30.01 in
(1016 mb)
Calm - 4SM
17:16
Overcast
Fog And Mist
66°F / 19°C 63°F / 17°C 88% 30.01 in
(1016 mb)
NE 4.6 mph
(NE 7 kph)
- 4SM
16:53
Overcast
Fog And Mist
66°F / 19°C 63°F / 17°C 88% 29.98 in
(1015 mb)
ENE 3.5 mph
(ENE 6 kph)
- 4SM
16:36
Overcast
Fog And Mist
66°F / 19°C 64°F / 18°C 94% 30.01 in
(1016 mb)
ENE 3.5 mph
(ENE 6 kph)
- 4SM
15:53
Overcast
Fog And Mist
64°F / 18°C 63°F / 17°C 94% 30.01 in
(1016 mb)
ENE 4.6 mph
(ENE 7 kph)
- 4SM
14:53
Overcast
Fog And Mist
64°F / 18°C 63°F / 17°C 94% 30.01 in
(1016 mb)
NE 5.8 mph
(NE 9 kph)
- 4SM
14:42
Overcast
Fog And Mist
64°F / 18°C 63°F / 17°C 94% 30.01 in
(1016 mb)
ENE 5.8 mph
(ENE 9 kph)
- 4SM
13:53
Overcast
Fog And Mist
64°F / 18°C 64°F / 18°C 100% 30.01 in
(1016 mb)
ENE 5.8 mph
(ENE 9 kph)
- 4SM
13:44
Overcast
Fog And Mist
64°F / 18°C 64°F / 18°C 100% 30.01 in
(1016 mb)
E 5.8 mph
(E 9 kph)
- 4SM
13:14
Overcast
Fog And Mist
64°F / 18°C 64°F / 18°C 100% 30.01 in
(1016 mb)
E 8.1 mph
(E 13 kph)
- 3SM
12:53
Overcast
Fog And Mist
64°F / 18°C 64°F / 18°C 100% 30.01 in
(1016 mb)
E 8.1 mph
(E 13 kph)
- 4SM
12:27
Overcast
Fog And Mist
64°F / 18°C 64°F / 18°C 100% 30.01 in
(1016 mb)
ESE 8.1 mph
(ESE 13 kph)
- 4SM
11:53
Overcast
Fog And Mist
64°F / 18°C 64°F / 18°C 100% 30.01 in
(1016 mb)
E 5.8 mph
(E 9 kph)
- 3SM
11:40
Overcast
Fog And Mist
64°F / 18°C 64°F / 18°C 100% 30.01 in
(1016 mb)
E 5.8 mph
(E 9 kph)
- 3SM
10:53
Overcast
Fog And Mist
64°F / 18°C 64°F / 18°C 100% 30.01 in
(1016 mb)
SE 5.8 mph
(SE 9 kph)
- 2 1/2SM
10:46
Overcast
Fog And Mist
63°F / 17°C 63°F / 17°C 100% 30.01 in
(1016 mb)
E 6.9 mph
(E 11 kph)
- 2SM
10:29
Overcast
Fog And Mist
63°F / 17°C 63°F / 17°C 100% 30.01 in
(1016 mb)
ENE 6.9 mph
(ENE 11 kph)
- 1 1/4SM
10:19
Overcast
Fog And Mist
63°F / 17°C 63°F / 17°C 100% 30.01 in
(1016 mb)
E 4.6 mph
(E 7 kph)
- 3/4SM
10:04
Overcast
Fog And Mist
63°F / 17°C 63°F / 17°C 100% 30.01 in
(1016 mb)
E 6.9 mph
(E 11 kph)
- 1SM
09:53
Overcast
Fog
63°F / 17°C 63°F / 17°C 100% 30.01 in
(1016 mb)
E 4.6 mph
(E 7 kph)
- 1/2SM
09:45
Overcast
Fog
63°F / 17°C 63°F / 17°C 100% 30.04 in
(1017 mb)
E 5.8 mph
(E 9 kph)
- 1/2SM
08:53
Obscured
Fog
63°F / 17°C 63°F / 17°C 100% 30.01 in
(1016 mb)
E 8.1 mph
(E 13 kph)
0.00 in
(0.00 mm)
1/4SM
07:53
Obscured
Light Rain
63°F / 17°C 63°F / 17°C 100% 30.01 in
(1016 mb)
E 3.5 mph
(E 6 kph)
0.00 in
(0.00 mm)
1/4SM
07:22
Obscured
Fog
63°F / 17°C 63°F / 17°C 100% 30.01 in
(1016 mb)
ENE 3.5 mph
(ENE 6 kph)
- 1/4SM
06:53
Obscured
Fog
63°F / 17°C 63°F / 17°C 100% 30.01 in
(1016 mb)
N 3.5 mph
(N 6 kph)
- 1/2SM
06:48
Obscured
Fog
63°F / 17°C 63°F / 17°C 100% 30.01 in
(1016 mb)
Variable 3.5 mph
(Variable 6 kph)
- 1/2SM
06:32
Overcast
Fog And Mist
63°F / 17°C 63°F / 17°C 100% 30.01 in
(1016 mb)
Calm - 3/4SM
06:21
Obscured
Fog And Mist
63°F / 17°C 63°F / 17°C 100% 29.98 in
(1015 mb)
Calm - 1SM
06:00
Obscured
Fog
63°F / 17°C 63°F / 17°C 100% 29.98 in
(1015 mb)
SE 4.6 mph
(SE 7 kph)
- 1/2SM
05:53
Overcast
Fog And Mist
63°F / 17°C 63°F / 17°C 100% 29.95 in
(1014 mb)
SSE 4.6 mph
(SSE 7 kph)
- 3/4SM
04:53
Overcast
Fog And Mist
63°F / 17°C 63°F / 17°C 100% 29.98 in
(1015 mb)
SE 3.5 mph
(SE 6 kph)
- 1 3/4SM
03:53
Overcast
Fog And Mist
63°F / 17°C 63°F / 17°C 100% 29.95 in
(1014 mb)
SE 3.5 mph
(SE 6 kph)
- 1SM
03:02
Obscured
Fog And Mist
63°F / 17°C 63°F / 17°C 100% 29.95 in
(1014 mb)
ESE 5.8 mph
(ESE 9 kph)
- 1SM
02:53
Obscured
Fog
63°F / 17°C 63°F / 17°C 100% 29.95 in
(1014 mb)
ESE 6.9 mph
(ESE 11 kph)
- 1/2SM
01:53
Obscured
Fog
63°F / 17°C 63°F / 17°C 100% 29.95 in
(1014 mb)
ESE 5.8 mph
(ESE 9 kph)
- 1/4SM
01:48
Obscured
Fog
63°F / 17°C 63°F / 17°C 100% 29.95 in
(1014 mb)
E 4.6 mph
(E 7 kph)
- 1/4SM
01:24
Obscured
Fog
63°F / 17°C 63°F / 17°C 100% 29.95 in
(1014 mb)
E 5.8 mph
(E 9 kph)
- 1/2SM
01:03
Obscured
Fog
63°F / 17°C 63°F / 17°C 100% 29.95 in
(1014 mb)
E 8.1 mph
(E 13 kph)
- 1/4SM
00:53
Obscured
Fog
63°F / 17°C 63°F / 17°C 100% 29.95 in
(1014 mb)
E 5.8 mph
(E 9 kph)
- 1/2SM
00:19
Obscured
Fog
64°F / 18°C 64°F / 18°C 100% 29.95 in
(1014 mb)
ESE 6.9 mph
(ESE 11 kph)
- 1/2SM
00:11
Obscured
Fog
64°F / 18°C 64°F / 18°C 100% 29.95 in
(1014 mb)
E 6.9 mph
(E 11 kph)
- 1/4SM
00:03
Obscured
Fog
64°F / 18°C 64°F / 18°C 100% 29.95 in
(1014 mb)
E 5.8 mph
(E 9 kph)
- 1/2SM
Time Weather Temperature Dewpoint Humidity Pressure Winds Precip Visibility


Weather for websites

WeatherForYou.com, LLC is not responsible for any damages or problems caused by this service. Current weather conditions are obtained from the closest station including government and personal stations which may have varying degrees of accuracy. Weather forecasts are derived from the NOAA NDFD. Like all things, this site belongs to Jesus Christ... He just trusts me to maintain it. If you have any questions or comments email webmaster@weatherforyou.com

Copyright © 2014, WeatherForYou.com LLC. All rights reserved.